Rome, NY

1:21 PM EDT on May 24, 2017 (GMT -0400)
Griffiss

Weather History for KRME - December, 2013

Change the Weather History Date:

Monday, December 30, 2013

  Actual Average Record
Temperature  
Mean Temperature 19 °F -  
Max Temperature 35 °F 30 °F 55 °F (1990)
Min Temperature 3 °F 16 °F -2 °F (1987)
Degree Days  
Heating Degree Days 46    
Moisture  
Dew Point 14 °F    
Average Humidity 76    
Maximum Humidity 92    
Minimum Humidity 62    
Precipitation  
Precipitation 0.00 in - - ()
Sea Level Pressure  
Sea Level Pressure 30.04 in    
Wind  
Wind Speed 14 mph (WNW)    
Max Wind Speed 25 mph    
Max Gust Speed 33 mph    
Visibility 7 miles    
Events Rain , Snow    
Averages and records for this station are not official NWS values.
T = Trace of Precipitation, MM = Missing Value Source: NWS Daily Summary

Daily Weather History Graph

Daily Weather History Graph

Search for Another Location

Airport or City:

Trip Planner

Search our weather history database for the weather conditions in past years. The results will help you decide how hot, cold, wet, or windy it might be!

Date:

Astronomy

Dec. 30, 2013 Rise Set
Actual Time 7:33 AM EST 4:35 PM EST
Civil Twilight 7:01 AM EST 5:07 PM EST
Nautical Twilight 6:25 AM EST 5:43 PM EST
Astronomical Twilight 5:50 AM EST 6:18 PM EST
Moon 5:19 AM EST (12/30) 3:07 PM EST (12/30)
Length of Visible Light 10h 06m
Length of Day
9h 01m
Waning Crescent, 5% of the Moon is Illuminated
Dec 30
Waning Crescent
Jan 1
New
Jan 7
First Quarter
Jan 15
Full
Jan 24
Last Quarter

Hourly Weather History & Observations

Time (EST) Temp. Windchill Dew Point Humidity Pressure Visibility Wind Dir Wind Speed Gust Speed Precip Events Conditions
12:53 AM 33.1 °F 27.7 °F 30.9 °F 92% 29.70 in 5.0 mi NW 5.8 mph - N/A   Overcast
1:01 AM 33.1 °F 27.7 °F 30.9 °F 92% 29.69 in 6.0 mi WNW 5.8 mph - N/A   Overcast
1:53 AM 35.1 °F 25.5 °F 30.9 °F 85% 29.73 in 7.0 mi West 15.0 mph - N/A   Overcast
1:58 AM 35.1 °F 26.4 °F 32.0 °F 89% 29.72 in 6.0 mi West 12.7 mph - 0.00 in Rain Light Rain
2:04 AM 35.1 °F 25.5 °F 32.0 °F 89% 29.72 in 5.0 mi WNW 15.0 mph 24.2 mph 0.00 in Rain Light Rain
2:51 AM 32.0 °F 21.6 °F 28.4 °F 87% 29.76 in 10.0 mi West 15.0 mph - 0.00 in   Overcast
2:53 AM 32.0 °F 22.1 °F 28.0 °F 85% 29.78 in 10.0 mi West 13.8 mph 24.2 mph 0.00 in   Overcast
3:53 AM 28.9 °F 18.2 °F 24.1 °F 82% 29.82 in 10.0 mi West 13.8 mph 24.2 mph N/A   Overcast
4:48 AM 28.4 °F 15.8 °F 21.2 °F 74% 29.85 in 9.0 mi West 18.4 mph 27.6 mph 0.00 in Snow Light Snow
4:53 AM 28.0 °F 14.6 °F 21.0 °F 75% 29.87 in 9.0 mi West 20.7 mph 27.6 mph 0.00 in Snow Light Snow
5:44 AM 25.0 °F 12.2 °F 21.0 °F 85% 29.90 in 1.8 mi WNW 16.1 mph 26.5 mph 0.00 in Snow Light Snow
5:53 AM 25.0 °F 10.9 °F 19.9 °F 81% 29.92 in 2.5 mi WNW 19.6 mph 26.5 mph 0.00 in Snow Light Snow
6:07 AM 25.0 °F 11.7 °F 19.0 °F 78% 29.93 in 3.0 mi WNW 17.3 mph - 0.00 in Snow Light Snow
6:14 AM 24.1 °F 10.1 °F 19.0 °F 81% 29.93 in 2.0 mi WNW 18.4 mph - 0.00 in Snow Light Snow
6:23 AM 24.1 °F 9.0 °F 19.0 °F 81% 29.94 in 1.5 mi West 21.9 mph 27.6 mph 0.00 in Snow Light Snow
6:41 AM 23.0 °F 8.3 °F 18.0 °F 81% 29.96 in 3.0 mi West 19.6 mph 26.5 mph 0.00 in Snow Light Snow
6:51 AM 23.0 °F 8.0 °F 17.6 °F 80% 29.97 in 1.8 mi WNW 20.7 mph 26.5 mph 0.00 in Snow Light Snow
6:52 AM 23.0 °F 8.7 °F 17.1 °F 78% 29.99 in 1.8 mi WNW 18.4 mph 26.5 mph 0.00 in Snow Light Snow
7:09 AM 21.9 °F 5.1 °F 16.0 °F 78% 29.99 in 2.0 mi WNW 25.3 mph 33.4 mph 0.00 in Snow Light Snow
7:21 AM 21.9 °F 6.5 °F 15.1 °F 75% 30.01 in 6.0 mi WNW 20.7 mph 29.9 mph 0.00 in Snow Light Snow
7:53 AM 19.9 °F 2.5 °F 12.9 °F 74% 30.04 in 8.0 mi West 25.3 mph 32.2 mph 0.00 in Snow Light Snow
8:12 AM 19.9 °F 3.2 °F 10.9 °F 68% 30.05 in 10.0 mi WNW 23.0 mph 31.1 mph 0.00 in   Scattered Clouds
8:29 AM 19.9 °F 5.2 °F 12.0 °F 71% 30.06 in 10.0 mi West 17.3 mph 26.5 mph 0.00 in   Mostly Cloudy
8:53 AM 19.9 °F 6.2 °F 12.9 °F 74% 30.09 in 2.0 mi WNW 15.0 mph - 0.00 in Snow Light Snow
9:00 AM 19.9 °F 6.7 °F 12.9 °F 74% 30.07 in 1.5 mi WNW 13.8 mph - 0.00 in Snow Light Snow
9:12 AM 19.9 °F 5.7 °F 12.9 °F 74% 30.08 in 3.0 mi WNW 16.1 mph 26.5 mph 0.00 in Snow Light Snow
9:33 AM 19.0 °F 1.3 °F 10.0 °F 68% 30.09 in 9.0 mi WNW 25.3 mph 31.1 mph 0.00 in Snow Light Snow
9:53 AM 19.0 °F 3.6 °F 9.0 °F 65% 30.12 in 8.0 mi West 18.4 mph 26.5 mph 0.00 in Snow Light Snow
10:31 AM 19.0 °F 3.2 °F 12.9 °F 77% 30.12 in 1.8 mi NW 19.6 mph 25.3 mph 0.00 in Snow Light Snow
10:47 AM 19.4 °F 5.0 °F 10.4 °F 68% 30.12 in 3.0 mi WNW 16.1 mph - 0.00 in Snow Light Snow
10:53 AM 19.0 °F 4.5 °F 10.0 °F 68% 30.14 in 7.0 mi WNW 16.1 mph - 0.00 in Snow Light Snow
11:00 AM 19.0 °F 3.6 °F 12.0 °F 74% 30.12 in 1.8 mi NW 18.4 mph 24.2 mph 0.00 in Snow Light Snow
11:09 AM 18.0 °F 1.3 °F 10.9 °F 74% 30.13 in 3.0 mi NW 20.7 mph - 0.00 in Snow Light Snow
11:53 AM 18.0 °F 1.3 °F 10.0 °F 71% 30.15 in 8.0 mi NW 20.7 mph - 0.00 in Snow Light Snow
12:25 PM 17.1 °F 0.6 °F 6.1 °F 62% 30.14 in 10.0 mi NW 19.6 mph 27.6 mph 0.00 in   Mostly Cloudy
12:53 PM 16.0 °F -1.3 °F 8.1 °F 71% 30.17 in 8.0 mi NW 20.7 mph - 0.00 in Snow Light Snow
1:21 PM 17.1 °F 3.0 °F 7.0 °F 65% 30.15 in 9.0 mi WNW 13.8 mph - 0.00 in   Overcast
1:28 PM 17.1 °F 0.1 °F 7.0 °F 65% 30.15 in 10.0 mi WNW 20.7 mph 24.2 mph 0.00 in   Overcast
1:35 PM 17.1 °F 2.5 °F 6.1 °F 62% 30.15 in 10.0 mi WNW 15.0 mph 24.2 mph 0.00 in   Overcast
1:53 PM 18.0 °F 3.6 °F 9.0 °F 68% 30.17 in 9.0 mi NW 15.0 mph - 0.00 in Snow Light Snow
2:35 PM 18.0 °F 1.3 °F 7.0 °F 62% 30.17 in 10.0 mi NW 20.7 mph - 0.00 in   Overcast
2:53 PM 16.0 °F -0.4 °F 5.0 °F 62% 30.19 in 10.0 mi WNW 18.4 mph - 0.00 in   Mostly Cloudy
3:53 PM 14.0 °F -0.2 °F 6.1 °F 71% 30.20 in 10.0 mi WNW 12.7 mph - N/A   Mostly Cloudy
4:51 PM 12.2 °F -1.0 °F 3.2 °F 67% 30.20 in 10.0 mi WNW 10.4 mph - N/A   Clear
4:53 PM 12.0 °F -1.3 °F 3.9 °F 70% 30.22 in 10.0 mi WNW 10.4 mph - N/A   Clear
5:53 PM 10.9 °F 2.9 °F 3.9 °F 73% 30.24 in 10.0 mi NW 4.6 mph - N/A   Clear
6:53 PM 8.1 °F - 3.0 °F 80% 30.24 in 10.0 mi Calm Calm - N/A   Clear
7:53 PM 5.0 °F - 1.0 °F 84% 30.24 in 10.0 mi Calm Calm - N/A   Clear
8:53 PM 3.9 °F - 1.0 °F 88% 30.24 in 10.0 mi Calm Calm - N/A   Clear
9:53 PM 6.1 °F - 1.9 °F 83% 30.25 in 9.0 mi Calm Calm - N/A   Clear
10:53 PM 6.1 °F -0.9 °F 1.9 °F 83% 30.24 in 10.0 mi ENE 3.5 mph - N/A   Scattered Clouds
11:53 PM 7.0 °F 0.1 °F 1.9 °F 80% 30.23 in 10.0 mi Variable 3.5 mph - N/A   Clear